Tucson, AZ

12:44 PM MST on August 25, 2016 (GMT -0700)
Tucson International

Weather History for KTUS - July, 2013

Change the Weather History Date:

Friday, July 12, 2013

  Actual Average Record
Temperature  
Mean Temperature 87 °F 88 °F  
Max Temperature 94 °F 100 °F 110 °F (2005)
Min Temperature 80 °F 75 °F 63 °F (1960)
Degree Days  
Heating Degree Days 0 0  
Month to date heating degree days 0 0  
Since 1 June heating degree days 0 0  
Since 1 July heating degree days 0 0  
Cooling Degree Days 22 23  
Month to date cooling degree days 298 276  
Year to date cooling degree days 1750 1372  
Since 1 June cooling degree days 1039 870  
Growing Degree Days 36 (Base 50)    
Moisture  
Dew Point 62 °F    
Average Humidity 48    
Maximum Humidity 67    
Minimum Humidity 28    
Precipitation  
Precipitation T in 0.07 in 1.31 in (1923)
Month to date precipitation 1.06 0.60  
Year to date precipitation 2.83 3.87  
Snow  
Snow 0.00 in - - ()
Month to date snowfall 0.0  
Snow Depth 0.00 in    
Sea Level Pressure  
Sea Level Pressure 29.84 in    
Wind  
Wind Speed 7 mph (WNW)    
Max Wind Speed 21 mph    
Max Gust Speed 26 mph    
Visibility 10 miles    
Events Thunderstorm    
T = Trace of Precipitation, MM = Missing Value Source: NWS Daily Summary

Daily Weather History Graph

Daily Weather History Graph

Search for Another Location

Airport or City:

Trip Planner

Search our weather history database for the weather conditions in past years. The results will help you decide how hot, cold, wet, or windy it might be!

Date:

Astronomy

Jul. 12, 2013 Rise Set
Actual Time 5:26 AM MST 7:32 PM MST
Civil Twilight 4:58 AM MST 7:59 PM MST
Nautical Twilight 4:24 AM MST 8:33 PM MST
Astronomical Twilight 3:48 AM MST 9:10 PM MST
Moon 9:29 AM MST (7/12) 10:04 PM MST (7/12)
Length of Visible Light 15h 01m
Length of Day
14h 05m
Waxing Crescent, 18% of the Moon is Illuminated
Jul 12
Waxing Crescent
Jul 15
First Quarter
Jul 22
Full
Jul 29
Last Quarter
Aug 6
New

Hourly Weather History & Observations

Time (MST) Temp. Heat Index Dew Point Humidity Pressure Visibility Wind Dir Wind Speed Gust Speed Precip Events Conditions
12:53 AM 82.0 °F 84.9 °F 68.0 °F 62% 29.81 in 10.0 mi Calm Calm - N/A   Clear
1:53 AM 81.0 °F 83.8 °F 68.0 °F 65% 29.82 in 10.0 mi WNW 3.5 mph - N/A   Clear
2:53 AM 81.0 °F 83.3 °F 66.9 °F 62% 29.81 in 10.0 mi WSW 4.6 mph - N/A   Clear
3:53 AM 80.1 °F 81.7 °F 64.0 °F 58% 29.83 in 10.0 mi West 4.6 mph - N/A   Clear
4:53 AM 80.1 °F 81.9 °F 64.9 °F 60% 29.84 in 10.0 mi Calm Calm - N/A   Clear
5:53 AM 80.1 °F 81.9 °F 64.9 °F 60% 29.86 in 10.0 mi Calm Calm - N/A   Overcast
6:53 AM 80.1 °F 81.9 °F 64.9 °F 60% 29.86 in 10.0 mi Calm Calm - N/A   Partly Cloudy
7:53 AM 82.0 °F 84.1 °F 66.0 °F 58% 29.87 in 10.0 mi SSE 12.7 mph - N/A   Clear
8:53 AM 82.9 °F 84.6 °F 64.9 °F 54% 29.87 in 10.0 mi ESE 8.1 mph - N/A   Clear
9:53 AM 84.9 °F 85.0 °F 61.0 °F 44% 29.88 in 10.0 mi SE 6.9 mph - N/A   Clear
9:59 AM 84.9 °F 85.0 °F 61.0 °F 44% 30.03 in 10.0 mi ESE 5.8 mph - N/A Thunderstorm Partly Cloudy
10:53 AM 82.0 °F 83.1 °F 63.0 °F 52% 29.90 in 10.0 mi SSW 11.5 mph - 0.00 in Thunderstorm Mostly Cloudy
11:53 AM 84.9 °F 85.9 °F 63.0 °F 48% 29.88 in 10.0 mi NW 11.5 mph 19.6 mph N/A   Clear
12:02 PM 84.9 °F 85.4 °F 62.1 °F 46% 30.02 in 10.0 mi NW 11.5 mph - N/A   Clear
12:53 PM 87.1 °F 88.9 °F 64.9 °F 48% 29.85 in 10.0 mi North 8.1 mph - N/A   Clear
1:53 PM 91.0 °F 93.0 °F 64.9 °F 42% 29.83 in 10.0 mi NNW 8.1 mph - N/A   Clear
2:53 PM 93.0 °F 92.0 °F 57.9 °F 31% 29.79 in 10.0 mi WNW 9.2 mph - N/A   Clear
3:53 PM 91.9 °F 90.3 °F 55.9 °F 30% 29.77 in 10.0 mi West 12.7 mph - N/A   Clear
4:53 PM 91.0 °F 90.0 °F 57.9 °F 33% 29.76 in 10.0 mi WNW 8.1 mph - N/A   Clear
5:53 PM 93.0 °F 91.1 °F 55.0 °F 28% 29.75 in 10.0 mi West 12.7 mph - N/A   Clear
6:53 PM 91.9 °F 90.3 °F 55.9 °F 30% 29.76 in 10.0 mi WNW 10.4 mph - N/A   Clear
7:53 PM 88.0 °F 88.4 °F 62.1 °F 42% 29.78 in 10.0 mi NNW 10.4 mph - N/A   Clear
8:53 PM 87.1 °F 86.7 °F 60.1 °F 40% 29.80 in 10.0 mi NNW 10.4 mph - N/A   Clear
9:53 PM 86.0 °F 86.1 °F 61.0 °F 43% 29.82 in 10.0 mi NNW 6.9 mph - N/A   Clear
10:53 PM 84.9 °F 85.4 °F 62.1 °F 46% 29.83 in 10.0 mi NW 5.8 mph - N/A   Clear
11:53 PM 82.9 °F 84.0 °F 63.0 °F 51% 29.83 in 10.0 mi WSW 3.5 mph - N/A   Clear